Weather History for TNCB - September, 2014

Change the Weather History Date:

Monday, September 8, 2014

  Actual Average Record
Temperature  
Mean Temperature 86 °F -  
Max Temperature 89 °F 89 °F - (-1)
Min Temperature 82 °F 82 °F - (-1)
Cooling Degree Days 20    
Growing Degree Days 36 (Base 50)    
Moisture  
Dew Point 75 °F    
Average Humidity 72    
Maximum Humidity 84    
Minimum Humidity 62    
Precipitation  
Precipitation 0.00 in - - ()
Sea Level Pressure  
Sea Level Pressure 29.90 in    
Wind  
Wind Speed 16 mph ()    
Max Wind Speed 24 mph    
Max Gust Speed 34 mph    
Visibility 6.2 miles    
Events      
Averages and records for this station are not official NWS values.
T = Trace of Precipitation, MM = Missing Value Source: Averaged Metar Reports

Daily Weather History Graph

Daily Weather History Graph

Search for Another Location

Airport or City:

Trip Planner

Search our weather history database for the weather conditions in past years. The results will help you decide how hot, cold, wet, or windy it might be!

Date:

Astronomy

Sep. 08, 2014 Rise Set
Actual Time 6:22 AM AST 6:38 PM AST
Civil Twilight 6:01 AM AST 7:00 PM AST
Nautical Twilight 5:36 AM AST 7:24 PM AST
Astronomical Twilight 5:11 AM AST 7:49 PM AST
Moon 6:21 PM AST (9/8) 5:44 AM AST (9/8)
Length of Visible Light 12h 58m
Length of Day
12h 16m
Full, 100% of the Moon is Illuminated
Sep 8
Full
Sep 8
Full
Sep 15
Last Quarter
Sep 24
New
Oct 1
First Quarter

Hourly Weather History & Observations

Time (AST) Temp. Heat Index Dew Point Humidity Pressure Visibility Wind Dir Wind Speed Gust Speed Precip Events Conditions
12:00 AM 84.2 °F 92.3 °F 75.2 °F 74% 29.89 in - East 17.3 mph - N/A   Unknown
1:00 AM 82.4 °F 90.9 °F 77.0 °F 84% 29.89 in - East 11.5 mph - N/A   Unknown
2:00 AM 82.4 °F 89.5 °F 75.2 °F 79% 29.89 in - East 11.5 mph - N/A   Unknown
3:00 AM 82.4 °F 89.5 °F 75.2 °F 79% 29.86 in - East 15.0 mph - N/A   Unknown
4:00 AM 82.4 °F 89.5 °F 75.2 °F 79% 29.86 in - North - - N/A   Unknown
5:00 AM 82.4 °F 89.5 °F 75.2 °F 79% 29.86 in - East 18.4 mph - N/A   Unknown
6:00 AM 82.4 °F 89.5 °F 75.2 °F 79% 29.89 in - East 13.8 mph - N/A   Unknown
7:00 AM 82.4 °F 89.5 °F 75.2 °F 79% 29.89 in - East 13.8 mph - N/A   Unknown
8:00 AM 85 °F - 75 °F 66% 29.93 in - East 17.9 mph - -  
8:00 AM 84.2 °F 92.3 °F 75.2 °F 74% 29.92 in 6.2 mi East 18.4 mph - N/A   Scattered Clouds
9:00 AM 86.0 °F 95.1 °F 75.2 °F 70% 29.95 in 6.2 mi East 20.7 mph - N/A   Scattered Clouds
10:00 AM 87.8 °F 97.6 °F 75.2 °F 66% 29.95 in - East 20.7 mph - N/A   Unknown
11:00 AM 87.8 °F 97.6 °F 75.2 °F 66% 29.95 in 6.2 mi East 21.9 mph - N/A   Mostly Cloudy
12:00 PM 89.6 °F 99.8 °F 75.2 °F 62% 29.95 in 6.2 mi East 20.7 mph - N/A   Scattered Clouds
1:00 PM 89.6 °F 99.8 °F 75.2 °F 62% 29.92 in - East 20.7 mph - N/A   Unknown
2:00 PM 89.6 °F 99.8 °F 75.2 °F 62% 29.89 in - East 21.9 mph - N/A   Unknown
3:00 PM 87.8 °F 97.6 °F 75.2 °F 66% 29.89 in 6.2 mi East 23.0 mph 34.5 mph N/A   Scattered Clouds
4:00 PM 87.8 °F 97.6 °F 75.2 °F 66% 29.86 in 6.2 mi East 24.2 mph - N/A   Scattered Clouds
5:00 PM 87.8 °F 97.6 °F 75.2 °F 66% 29.83 in 6.2 mi East 23.0 mph - N/A   Scattered Clouds
6:00 PM 86.0 °F 95.1 °F 75.2 °F 70% 29.83 in - ENE 24.2 mph - N/A   Unknown
7:00 PM 84.2 °F 92.3 °F 75.2 °F 74% 29.86 in - ENE 23.0 mph - N/A   Unknown
8:00 PM 84.2 °F 92.3 °F 75.2 °F 74% 29.89 in - ENE 24.2 mph - N/A   Unknown
9:00 PM 84.2 °F 92.3 °F 75.2 °F 74% 29.89 in 6.2 mi ENE 24.2 mph - N/A   Scattered Clouds
10:00 PM 84.2 °F 92.3 °F 75.2 °F 74% 29.92 in - ENE 23.0 mph - N/A   Unknown
11:00 PM 84.2 °F 94.1 °F 77.0 °F 79% 29.95 in - East 21.9 mph - N/A   Unknown